DLH915 EGLL-EDDF

Flight info

Callsign DLH915
Flight time 1h 16m
Altitude 30000
Route BPK Q295 MATCH DCT REDFA DCT TACHA DCT NOLRU DCT DIXAT DIXAT1A
Aircraft A21N/M-SDE3FGHIRWY/LB1

Departure

Time 2026-05-05 12:21
Airport London Heathrow Airport (EGLL)

Arrival

Time 2026-05-05 13:38
Airport Frankfurt Main Airport (EDDF)
Time Latitude Longitude Altitude Speed Heading
2026-05-05 11:46 51.47034 -0.46367 83 ft 0 kts 236°
2026-05-05 12:03 51.47040 -0.46353 83 ft 2 kts 236°
2026-05-05 12:03 51.47048 -0.46334 83 ft 2 kts 236°
2026-05-05 12:04 51.47056 -0.46314 83 ft 2 kts 236°
2026-05-05 12:04 51.47065 -0.46294 83 ft 2 kts 236°
2026-05-05 12:04 51.47073 -0.46273 83 ft 2 kts 260°
2026-05-05 12:04 51.47072 -0.46249 83 ft 2 kts 294°
2026-05-05 12:05 51.47066 -0.46235 83 ft 1 kts 317°
2026-05-05 12:05 51.47058 -0.46226 83 ft 0 kts 327°
2026-05-05 12:08 51.47064 -0.46232 83 ft 3 kts 327°
2026-05-05 12:08 51.47102 -0.46274 83 ft 9 kts 326°
2026-05-05 12:09 51.47174 -0.46352 83 ft 15 kts 328°
2026-05-05 12:09 51.47240 -0.46501 83 ft 19 kts 274°
2026-05-05 12:09 51.47239 -0.46737 83 ft 22 kts 269°
2026-05-05 12:09 51.47163 -0.46867 83 ft 15 kts 181°
2026-05-05 12:10 51.47054 -0.46868 83 ft 15 kts 180°
2026-05-05 12:10 51.46945 -0.46866 83 ft 15 kts 179°
2026-05-05 12:10 51.46838 -0.46863 83 ft 10 kts 179°
2026-05-05 12:10 51.46827 -0.46863 83 ft 0 kts 179°
2026-05-05 12:11 51.46825 -0.46863 83 ft 0 kts 179°
2026-05-05 12:11 51.46810 -0.46863 83 ft 4 kts 180°
2026-05-05 12:11 51.46761 -0.46884 83 ft 10 kts 221°
2026-05-05 12:11 51.46747 -0.47028 83 ft 16 kts 271°
2026-05-05 12:12 51.46748 -0.47233 83 ft 20 kts 271°
2026-05-05 12:12 51.46746 -0.47484 83 ft 22 kts 269°
2026-05-05 12:12 51.46744 -0.47696 83 ft 6 kts 270°
2026-05-05 12:12 51.46744 -0.47701 83 ft 0 kts 270°
2026-05-05 12:13 51.46744 -0.47703 83 ft 1 kts 270°
2026-05-05 12:13 51.46744 -0.47745 83 ft 6 kts 271°
2026-05-05 12:13 51.46744 -0.47851 83 ft 12 kts 269°
2026-05-05 12:14 51.46743 -0.48003 83 ft 9 kts 270°
2026-05-05 12:14 51.46743 -0.48012 83 ft 0 kts 270°
2026-05-05 12:14 51.46743 -0.48014 83 ft 0 kts 270°
2026-05-05 12:15 51.46743 -0.48042 83 ft 4 kts 270°
2026-05-05 12:15 51.46743 -0.48111 83 ft 7 kts 270°
2026-05-05 12:15 51.46718 -0.48202 83 ft 11 kts 209°
2026-05-05 12:15 51.46634 -0.48214 83 ft 9 kts 181°
2026-05-05 12:16 51.46608 -0.48214 83 ft 0 kts 181°
2026-05-05 12:18 51.46606 -0.48214 83 ft 1 kts 181°
2026-05-05 12:19 51.46578 -0.48215 83 ft 6 kts 181°
2026-05-05 12:19 51.46517 -0.48210 83 ft 11 kts 165°
2026-05-05 12:19 51.46478 -0.48099 83 ft 8 kts 90°
2026-05-05 12:19 51.46478 -0.48085 83 ft 0 kts 90°
2026-05-05 12:20 51.46478 -0.48020 83 ft 27 kts 90°
2026-05-05 12:20 51.46481 -0.47319 83 ft 97 kts 90°
2026-05-05 12:21 51.46484 -0.45912 84 ft 154 kts 90°
2026-05-05 12:21 51.46474 -0.43984 306 ft 182 kts 90°
2026-05-05 12:21 51.46507 -0.41934 814 ft 191 kts 84°
2026-05-05 12:21 51.46854 -0.39903 1440 ft 194 kts 54°
2026-05-05 12:22 51.47786 -0.38297 1906 ft 205 kts 43°
2026-05-05 12:22 51.48861 -0.36609 2142 ft 225 kts 44°
2026-05-05 12:22 51.49968 -0.34735 2475 ft 242 kts 47°
2026-05-05 12:22 51.51112 -0.32671 2993 ft 251 kts 48°
2026-05-05 12:23 51.52204 -0.30526 3671 ft 253 kts 57°
2026-05-05 12:23 51.52918 -0.27914 4344 ft 257 kts 70°
2026-05-05 12:23 51.53443 -0.25163 5015 ft 261 kts 72°
2026-05-05 12:23 51.53968 -0.22402 5605 ft 264 kts 71°
2026-05-05 12:24 51.54666 -0.19667 5908 ft 265 kts 54°
2026-05-05 12:24 51.56046 -0.17763 5975 ft 265 kts 25°
2026-05-05 12:24 51.57837 -0.17131 5980 ft 266 kts
2026-05-05 12:24 51.59672 -0.17177 5979 ft 265 kts
2026-05-05 12:25 51.61478 -0.16614 5981 ft 264 kts 14°
2026-05-05 12:25 51.63262 -0.15915 5979 ft 264 kts 15°
2026-05-05 12:25 51.65053 -0.15162 5979 ft 263 kts 16°
2026-05-05 12:25 51.66824 -0.14380 5989 ft 263 kts 16°
2026-05-05 12:26 51.68582 -0.13582 5976 ft 263 kts 17°
2026-05-05 12:26 51.70338 -0.12777 5974 ft 263 kts 17°
2026-05-05 12:26 51.72097 -0.11967 5974 ft 263 kts 17°
2026-05-05 12:26 51.73784 -0.10878 5975 ft 263 kts 36°
2026-05-05 12:27 51.74977 -0.08651 6014 ft 266 kts 64°
2026-05-05 12:27 51.75421 -0.05761 6460 ft 273 kts 83°
2026-05-05 12:27 51.75635 -0.02746 7276 ft 271 kts 82°
2026-05-05 12:27 51.75875 0.00244 7916 ft 274 kts 82°
2026-05-05 12:28 51.76126 0.03288 8557 ft 278 kts 81°
2026-05-05 12:28 51.76384 0.06401 9164 ft 282 kts 81°
2026-05-05 12:28 51.76644 0.09543 9748 ft 285 kts 81°
2026-05-05 12:28 51.76907 0.12732 10304 ft 290 kts 81°
2026-05-05 12:29 51.77174 0.15998 10662 ft 302 kts 81°
2026-05-05 12:29 51.77457 0.19442 10910 ft 317 kts 81°
2026-05-05 12:29 51.77757 0.23020 11162 ft 331 kts 80°
2026-05-05 12:29 51.78195 0.26743 11427 ft 344 kts 76°
2026-05-05 12:30 51.78776 0.30530 11837 ft 352 kts 75°
2026-05-05 12:30 51.79387 0.34357 12349 ft 355 kts 74°
2026-05-05 12:30 51.80012 0.38259 12920 ft 357 kts 74°
2026-05-05 12:30 51.80622 0.42077 13475 ft 360 kts 74°
2026-05-05 12:31 51.81251 0.46036 14001 ft 363 kts 75°
2026-05-05 12:31 51.81884 0.50018 14543 ft 366 kts 75°
2026-05-05 12:31 51.82510 0.53974 15040 ft 369 kts 75°
2026-05-05 12:31 51.83153 0.58046 15505 ft 373 kts 75°
2026-05-05 12:32 51.83786 0.62073 15965 ft 375 kts 75°
2026-05-05 12:32 51.84428 0.66168 16434 ft 378 kts 76°
2026-05-05 12:32 51.85077 0.70317 16862 ft 382 kts 76°
2026-05-05 12:32 51.85727 0.74482 17293 ft 385 kts 76°
2026-05-05 12:33 51.86383 0.78704 17722 ft 388 kts 76°
2026-05-05 12:33 51.87040 0.82937 18154 ft 390 kts 76°
2026-05-05 12:33 51.87698 0.87194 18550 ft 393 kts 76°
2026-05-05 12:33 51.88367 0.91538 18983 ft 395 kts 76°
2026-05-05 12:34 51.89032 0.95848 19393 ft 397 kts 76°
2026-05-05 12:34 51.89699 1.00191 19788 ft 400 kts 77°
2026-05-05 12:34 51.90379 1.04631 20174 ft 403 kts 77°
2026-05-05 12:34 51.91051 1.09028 20534 ft 406 kts 77°
2026-05-05 12:35 51.91722 1.13433 20887 ft 408 kts 77°
2026-05-05 12:35 51.92397 1.17880 21251 ft 410 kts 77°
2026-05-05 12:35 51.93081 1.22395 21609 ft 413 kts 77°
2026-05-05 12:35 51.93766 1.26928 21943 ft 415 kts 77°
2026-05-05 12:36 51.94447 1.31458 22279 ft 417 kts 77°
2026-05-05 12:36 51.95125 1.35977 22594 ft 420 kts 77°
2026-05-05 12:36 51.95820 1.40617 22915 ft 422 kts 77°
2026-05-05 12:36 51.96510 1.45247 23216 ft 424 kts 77°
2026-05-05 12:37 51.97197 1.49859 23500 ft 427 kts 77°
2026-05-05 12:37 51.97886 1.54505 23798 ft 429 kts 77°
2026-05-05 12:37 51.98584 1.59218 24135 ft 430 kts 77°
2026-05-05 12:37 51.99266 1.63839 24904 ft 420 kts 77°
2026-05-05 12:38 51.99939 1.68392 25715 ft 409 kts 78°
2026-05-05 12:38 52.00588 1.72790 26527 ft 398 kts 79°
2026-05-05 12:38 52.01217 1.77079 27351 ft 386 kts 79°
2026-05-05 12:38 52.01825 1.81230 28166 ft 373 kts 79°
2026-05-05 12:39 52.02415 1.85279 28626 ft 371 kts 79°
2026-05-05 12:39 52.03011 1.89398 28864 ft 374 kts 79°
2026-05-05 12:39 52.04218 1.97801 28886 ft 393 kts 79°
2026-05-05 12:40 52.05478 2.06595 28893 ft 410 kts 79°
2026-05-05 12:40 52.06124 2.11107 29263 ft 408 kts 79°
2026-05-05 12:40 52.06759 2.15519 30086 ft 396 kts 79°
2026-05-05 12:41 52.07372 2.19803 30704 ft 389 kts 79°
2026-05-05 12:41 52.07975 2.24038 30951 ft 391 kts 80°
2026-05-05 12:41 52.09212 2.32837 30952 ft 407 kts 79°
2026-05-05 12:42 52.10495 2.41991 30950 ft 422 kts 80°
2026-05-05 12:42 52.11934 2.51387 30952 ft 438 kts 76°
2026-05-05 12:43 52.13754 2.61004 30952 ft 451 kts 75°
2026-05-05 12:43 52.15619 2.70766 30952 ft 463 kts 76°
2026-05-05 12:44 52.17540 2.80906 30955 ft 473 kts 76°
2026-05-05 12:44 52.19482 2.91225 30948 ft 479 kts 76°
2026-05-05 12:45 52.21424 3.01602 30949 ft 480 kts 76°
2026-05-05 12:45 52.23350 3.12037 30951 ft 481 kts 77°
2026-05-05 12:46 52.24204 3.22755 30950 ft 475 kts 93°
2026-05-05 12:46 52.23291 3.33340 30944 ft 469 kts 109°
2026-05-05 12:47 52.21078 3.43206 30947 ft 466 kts 115°
2026-05-05 12:47 52.18687 3.52995 30943 ft 466 kts 115°
2026-05-05 12:48 52.16307 3.62781 30943 ft 467 kts 114°
2026-05-05 12:48 52.13929 3.72574 30931 ft 468 kts 115°
2026-05-05 12:49 52.11532 3.82423 30923 ft 467 kts 115°
2026-05-05 12:49 52.09136 3.92233 30934 ft 468 kts 115°
2026-05-05 12:50 52.06728 4.02053 30933 ft 468 kts 115°
2026-05-05 12:50 52.04316 4.11846 30916 ft 468 kts 115°
2026-05-05 12:51 52.01896 4.21625 30911 ft 467 kts 115°
2026-05-05 12:51 51.99458 4.31441 30898 ft 467 kts 115°
2026-05-05 12:52 51.97024 4.41191 30900 ft 467 kts 115°
2026-05-05 12:52 51.94578 4.50943 30897 ft 468 kts 115°
2026-05-05 12:53 51.92129 4.60667 30896 ft 468 kts 115°
2026-05-05 12:53 51.89664 4.70416 30893 ft 468 kts 116°
2026-05-05 12:54 51.85965 4.84962 30883 ft 468 kts 116°
2026-05-05 12:55 51.83481 4.94679 30885 ft 467 kts 116°
2026-05-05 12:55 51.80985 5.04403 30885 ft 467 kts 116°
2026-05-05 12:56 51.78503 5.14021 30889 ft 467 kts 116°
2026-05-05 12:56 51.75997 5.23692 30889 ft 467 kts 116°
2026-05-05 12:57 51.73470 5.33409 30893 ft 467 kts 116°
2026-05-05 12:57 51.70965 5.42999 30897 ft 467 kts 116°
2026-05-05 12:58 51.68437 5.52639 30902 ft 467 kts 116°
2026-05-05 12:58 51.65908 5.62239 30899 ft 466 kts 116°
2026-05-05 12:59 51.63356 5.71890 30897 ft 465 kts 117°
2026-05-05 12:59 51.60821 5.81436 30900 ft 465 kts 117°
2026-05-05 13:00 51.57013 5.95702 30894 ft 464 kts 117°
2026-05-05 13:01 51.51908 6.14702 30892 ft 464 kts 117°
2026-05-05 13:01 51.49388 6.24291 30888 ft 465 kts 115°
2026-05-05 13:02 51.47004 6.33996 30885 ft 466 kts 115°
2026-05-05 13:02 51.44649 6.43578 30881 ft 465 kts 115°
2026-05-05 13:03 51.42276 6.53195 30876 ft 465 kts 115°
2026-05-05 13:03 51.39906 6.62752 30872 ft 465 kts 115°
2026-05-05 13:04 51.37561 6.72176 30866 ft 465 kts 115°
2026-05-05 13:04 51.35157 6.81802 30860 ft 465 kts 115°
2026-05-05 13:05 51.33946 6.86633 30713 ft 466 kts 115°
2026-05-05 13:05 51.32743 6.91425 30432 ft 463 kts 115°
2026-05-05 13:05 51.31556 6.96139 30157 ft 461 kts 115°
2026-05-05 13:05 51.30368 7.00850 29874 ft 458 kts 115°
2026-05-05 13:06 51.29160 7.05532 29601 ft 455 kts 118°
2026-05-05 13:06 51.27603 7.09928 29320 ft 451 kts 127°
2026-05-05 13:06 51.25651 7.13788 29043 ft 448 kts 136°
2026-05-05 13:06 51.23322 7.17129 28767 ft 445 kts 145°
2026-05-05 13:07 51.20766 7.19777 28490 ft 442 kts 153°
2026-05-05 13:07 51.18027 7.22010 28217 ft 442 kts 155°
2026-05-05 13:07 51.15264 7.24198 27942 ft 443 kts 155°
2026-05-05 13:07 51.12491 7.26385 27606 ft 445 kts 155°
2026-05-05 13:08 51.09750 7.28587 27018 ft 446 kts 154°
2026-05-05 13:08 51.06989 7.30862 26278 ft 448 kts 154°
2026-05-05 13:08 51.04223 7.33152 25500 ft 449 kts 154°
2026-05-05 13:08 51.01465 7.35432 25288 ft 452 kts 154°
2026-05-05 13:09 50.98662 7.37743 24599 ft 456 kts 154°
2026-05-05 13:09 50.95826 7.40078 23704 ft 457 kts 153°
2026-05-05 13:09 50.93015 7.42388 22813 ft 457 kts 153°
2026-05-05 13:09 50.89307 7.45431 22031 ft 451 kts 153°
2026-05-05 13:10 50.87460 7.46945 21647 ft 448 kts 153°
2026-05-05 13:10 50.84702 7.49199 21060 ft 444 kts 153°
2026-05-05 13:10 50.81967 7.51430 20467 ft 439 kts 153°
2026-05-05 13:10 50.79285 7.53616 19876 ft 435 kts 153°
2026-05-05 13:11 50.76608 7.55798 19278 ft 430 kts 153°
2026-05-05 13:11 50.73994 7.57926 18701 ft 426 kts 153°
2026-05-05 13:11 50.71376 7.60053 18113 ft 422 kts 153°
2026-05-05 13:11 50.68799 7.62144 17598 ft 420 kts 153°
2026-05-05 13:12 50.66186 7.64261 17268 ft 423 kts 153°
2026-05-05 13:12 50.63560 7.66384 16664 ft 419 kts 154°
2026-05-05 13:12 50.60990 7.68461 16065 ft 415 kts 154°
2026-05-05 13:12 50.58458 7.70505 15590 ft 410 kts 153°
2026-05-05 13:13 50.55899 7.72566 15586 ft 413 kts 153°
2026-05-05 13:13 50.53341 7.74626 15140 ft 414 kts 153°
2026-05-05 13:13 50.50811 7.76660 14524 ft 411 kts 153°
2026-05-05 13:13 50.48268 7.78701 13916 ft 407 kts 153°
2026-05-05 13:14 50.45782 7.80739 13313 ft 403 kts 152°
2026-05-05 13:14 50.43411 7.82972 12732 ft 399 kts 148°
2026-05-05 13:14 50.41157 7.85449 12480 ft 396 kts 144°
2026-05-05 13:14 50.38998 7.88098 12477 ft 398 kts 142°
2026-05-05 13:15 50.36816 7.90807 12427 ft 398 kts 142°
2026-05-05 13:15 50.34649 7.93499 11987 ft 397 kts 142°
2026-05-05 13:15 50.32501 7.96162 11439 ft 393 kts 142°
2026-05-05 13:15 50.30390 7.98773 10881 ft 389 kts 142°
2026-05-05 13:16 50.28282 8.01424 10343 ft 385 kts 140°
2026-05-05 13:16 50.26345 8.04261 9888 ft 377 kts 135°
2026-05-05 13:16 50.24629 8.07268 9680 ft 363 kts 130°
2026-05-05 13:16 50.23127 8.10270 9709 ft 344 kts 129°
2026-05-05 13:17 50.21710 8.13152 9705 ft 325 kts 128°
2026-05-05 13:17 50.20387 8.15850 9711 ft 308 kts 129°
2026-05-05 13:17 50.19117 8.18435 9696 ft 291 kts 129°
2026-05-05 13:17 50.17916 8.20875 9682 ft 282 kts 129°
2026-05-05 13:18 50.16709 8.23315 9688 ft 282 kts 129°
2026-05-05 13:18 50.15514 8.25728 9706 ft 282 kts 129°
2026-05-05 13:18 50.14325 8.28127 9737 ft 282 kts 129°
2026-05-05 13:18 50.13119 8.30556 9760 ft 283 kts 129°
2026-05-05 13:19 50.11929 8.32996 9784 ft 283 kts 125°
2026-05-05 13:19 50.11056 8.35717 9806 ft 285 kts 110°
2026-05-05 13:19 50.10659 8.38754 9827 ft 287 kts 95°
2026-05-05 13:19 50.10773 8.41858 9840 ft 290 kts 81°
2026-05-05 13:20 50.11351 8.44863 9849 ft 291 kts 72°
2026-05-05 13:20 50.12069 8.47816 9843 ft 291 kts 70°
2026-05-05 13:20 50.13042 8.51736 9848 ft 291 kts 70°
2026-05-05 13:20 50.13519 8.53680 9845 ft 291 kts 71°
2026-05-05 13:21 50.14239 8.56648 9844 ft 291 kts 71°
2026-05-05 13:21 50.14949 8.59608 9841 ft 291 kts 71°
2026-05-05 13:21 50.15648 8.62540 9843 ft 292 kts 71°
2026-05-05 13:21 50.16351 8.65493 9841 ft 291 kts 72°
2026-05-05 13:22 50.17051 8.68441 9832 ft 291 kts 72°
2026-05-05 13:22 50.17753 8.71400 9886 ft 291 kts 72°
2026-05-05 13:22 50.18689 8.75347 9879 ft 291 kts 72°
2026-05-05 13:22 50.19387 8.78292 9850 ft 291 kts 72°
2026-05-05 13:23 50.20088 8.81264 9829 ft 290 kts 72°
2026-05-05 13:23 50.20549 8.83223 9829 ft 291 kts 72°
2026-05-05 13:23 50.21240 8.86160 9819 ft 291 kts 72°
2026-05-05 13:23 50.22166 8.90101 9733 ft 287 kts 72°
2026-05-05 13:24 50.22622 8.92043 9484 ft 286 kts 72°
2026-05-05 13:24 50.23297 8.94931 9064 ft 287 kts 72°
2026-05-05 13:24 50.23977 8.97843 8684 ft 285 kts 72°
2026-05-05 13:24 50.24654 9.00744 8316 ft 284 kts 71°
2026-05-05 13:25 50.25334 9.03661 7932 ft 283 kts 71°
2026-05-05 13:25 50.25998 9.06513 7560 ft 282 kts 71°
2026-05-05 13:25 50.26660 9.09356 7192 ft 280 kts 71°
2026-05-05 13:25 50.27327 9.12228 6812 ft 279 kts 71°
2026-05-05 13:26 50.27985 9.15069 6442 ft 277 kts 71°
2026-05-05 13:26 50.28854 9.18819 5967 ft 276 kts 70°
2026-05-05 13:26 50.29281 9.20671 5707 ft 275 kts 71°
2026-05-05 13:26 50.29625 9.23575 5301 ft 274 kts 97°
2026-05-05 13:27 50.28930 9.26245 5009 ft 268 kts 132°
2026-05-05 13:27 50.27455 9.27978 4991 ft 269 kts 157°
2026-05-05 13:27 50.25018 9.28516 4982 ft 268 kts 190°
2026-05-05 13:27 50.23300 9.27459 4988 ft 267 kts 216°
2026-05-05 13:28 50.22406 9.26153 4984 ft 265 kts 233°
2026-05-05 13:28 50.21436 9.23695 4984 ft 265 kts 240°
2026-05-05 13:28 50.20598 9.21154 4980 ft 265 kts 245°
2026-05-05 13:28 50.19906 9.18501 4986 ft 265 kts 250°
2026-05-05 13:29 50.19283 9.15789 4987 ft 264 kts 250°
2026-05-05 13:29 50.18671 9.13108 4983 ft 264 kts 250°
2026-05-05 13:29 50.18052 9.10417 4987 ft 264 kts 250°
2026-05-05 13:29 50.17231 9.06797 4986 ft 264 kts 252°
2026-05-05 13:30 50.16869 9.04967 4983 ft 264 kts 253°
2026-05-05 13:30 50.16323 9.02251 4986 ft 262 kts 252°
2026-05-05 13:30 50.15758 8.99635 4973 ft 246 kts 251°
2026-05-05 13:30 50.15012 8.96404 4971 ft 229 kts 249°
2026-05-05 13:31 50.14646 8.94875 4981 ft 224 kts 249°
2026-05-05 13:31 50.14120 8.92712 5085 ft 205 kts 249°
2026-05-05 13:31 50.13637 8.90744 5071 ft 183 kts 249°
2026-05-05 13:31 50.13077 8.88470 4946 ft 155 kts 249°
2026-05-05 13:32 50.12819 8.87427 4856 ft 152 kts 249°
2026-05-05 13:32 50.12445 8.85905 4643 ft 150 kts 249°
2026-05-05 13:32 50.11949 8.83894 4373 ft 149 kts 249°
2026-05-05 13:32 50.11705 8.82894 4241 ft 148 kts 249°
2026-05-05 13:33 50.11215 8.80903 3968 ft 148 kts 250°
2026-05-05 13:33 50.10852 8.79415 3768 ft 147 kts 250°
2026-05-05 13:33 50.10488 8.77922 3564 ft 147 kts 250°
2026-05-05 13:33 50.10251 8.76944 3431 ft 147 kts 250°
2026-05-05 13:34 50.09893 8.75468 3237 ft 146 kts 250°
2026-05-05 13:34 50.09536 8.73988 3046 ft 146 kts 251°
2026-05-05 13:34 50.09177 8.72500 2847 ft 146 kts 250°
2026-05-05 13:34 50.08823 8.71031 2658 ft 146 kts 250°
2026-05-05 13:35 50.08464 8.69546 2470 ft 146 kts 250°
2026-05-05 13:35 50.08114 8.68084 2287 ft 145 kts 250°
2026-05-05 13:35 50.07639 8.66111 2036 ft 145 kts 250°
2026-05-05 13:35 50.07286 8.64645 1846 ft 144 kts 250°
2026-05-05 13:36 50.07049 8.63656 1718 ft 144 kts 249°
2026-05-05 13:36 50.06697 8.62193 1528 ft 144 kts 250°
2026-05-05 13:36 50.06230 8.60247 1279 ft 143 kts 249°
2026-05-05 13:36 50.05886 8.58807 1094 ft 143 kts 249°
2026-05-05 13:37 50.05653 8.57836 972 ft 143 kts 248°
2026-05-05 13:37 50.05317 8.56379 785 ft 142 kts 249°
2026-05-05 13:37 50.04856 8.54471 554 ft 141 kts 248°
2026-05-05 13:37 50.04509 8.53066 382 ft 140 kts 250°
2026-05-05 13:38 50.04290 8.52137 355 ft 125 kts 249°
2026-05-05 13:38 50.03984 8.51032 355 ft 36 kts 224°
2026-05-05 13:38 50.03848 8.50854 355 ft 22 kts 206°
2026-05-05 13:38 50.03752 8.50983 354 ft 20 kts 118°
2026-05-05 13:39 50.03690 8.51173 354 ft 19 kts 117°
2026-05-05 13:39 50.03650 8.51297 354 ft 18 kts 117°
2026-05-05 13:39 50.03575 8.51537 354 ft 17 kts 116°
2026-05-05 13:39 50.03543 8.51637 354 ft 14 kts 115°
2026-05-05 13:40 50.03517 8.51868 354 ft 19 kts 84°
2026-05-05 13:40 50.03529 8.52014 354 ft 21 kts 85°
2026-05-05 13:40 50.03540 8.52245 354 ft 22 kts 83°
2026-05-05 13:40 50.03594 8.52584 354 ft 26 kts 86°
2026-05-05 13:41 50.03624 8.52845 354 ft 20 kts 121°
2026-05-05 13:41 50.03588 8.52982 354 ft 13 kts 90°
2026-05-05 13:41 50.03543 8.53097 354 ft 12 kts 112°
2026-05-05 13:41 50.03563 8.53246 354 ft 16 kts 69°
2026-05-05 13:42 50.03606 8.53429 354 ft 19 kts 70°
2026-05-05 13:42 50.03657 8.53641 354 ft 22 kts 70°
2026-05-05 13:42 50.03696 8.53800 354 ft 24 kts 70°
2026-05-05 13:42 50.03778 8.54139 355 ft 26 kts 70°
2026-05-05 13:43 50.03862 8.54386 354 ft 25 kts 63°
2026-05-05 13:43 50.03926 8.54640 354 ft 25 kts 70°
2026-05-05 13:43 50.03988 8.54894 354 ft 25 kts 70°
2026-05-05 13:43 50.04050 8.55160 355 ft 26 kts 70°
2026-05-05 13:44 50.04094 8.55338 355 ft 26 kts 70°
2026-05-05 13:44 50.04180 8.55700 355 ft 26 kts 70°
2026-05-05 13:44 50.04244 8.55965 355 ft 25 kts 69°
2026-05-05 13:44 50.04304 8.56215 355 ft 24 kts 70°
2026-05-05 13:45 50.04361 8.56455 355 ft 23 kts 70°
2026-05-05 13:45 50.04416 8.56685 355 ft 22 kts 69°
2026-05-05 13:45 50.04484 8.56862 355 ft 16 kts 27°
2026-05-05 13:45 50.04592 8.56905 355 ft 14 kts 14°
2026-05-05 13:46 50.04639 8.56908 355 ft 5 kts 330°
2026-05-05 13:46 50.04649 8.56881 355 ft 3 kts 279°
2026-05-05 13:46 50.04657 8.56837 355 ft 2 kts 292°
2026-05-05 13:46 50.04662 8.56819 355 ft 0 kts 293°